Location: Hanover
(52.3667°N, 9.7167°E)
Time: 05:09:25
(UTC+02:00)

Envisat - Pass Details

Date: 23 September 2024
Orbit: 762 x 764 km, 98.3° (Epoch: 04 October)

Event Time Altitude Azimuth Distance (km) Brightness Sun altitude
Rises 04:22:22 0° 17° (NNE) 3,240 7.0 -24.7°
Reaches altitude 10° 04:24:44 10° 21° (NNE) 2,309 6.2 -24.4°
Maximum altitude 04:29:45 59° 101° (E) 883 3.4 -23.8°
Enters shadow 04:32:02 31° 168° (SSE) 1,314 4.0 -23.5°
